�N����,����,�~����,�C��,���x,�C��,����,���ϕ���,�ő�u�ԕ���,�ő厞����,���˗�,�I�_���x,�n�����x,�ő啗���N��,DTYPE
"20/09/21","00:10",0.0,20.7,77.7,1009.0,316.3,1.1,1.8,315.0,0.00,16.7,23.0,"00:05:20",1
"20/09/21","00:20",0.0,20.7,78.1,1009.3,313.6,1.5,2.7,339.9,0.00,16.8,22.9,"00:14:08",1
"20/09/21","00:30",0.0,20.5,78.5,1009.3,305.3,1.5,2.5,322.4,0.00,16.7,23.1,"00:27:12",1
"20/09/21","00:40",0.0,20.6,78.5,1009.3,330.1,1.7,2.9,337.7,0.00,16.8,23.0,"00:32:16",1
"20/09/21","00:50",0.0,20.7,78.1,1009.3,311.0,1.7,3.4,338.4,0.00,16.8,23.0,"00:46:56",1
"20/09/21","01:00",0.0,20.7,77.5,1009.0,308.8,1.7,3.3,333.6,0.00,16.7,23.0,"00:53:04",1
"20/09/21","01:10",0.0,20.7,77.2,1009.3,303.1,1.1,2.0,317.0,0.00,16.6,23.0,"01:06:48",1
"20/09/21","01:20",0.0,20.6,77.3,1009.3,305.5,1.1,1.6,332.5,0.00,16.5,22.9,"01:15:52",1
"20/09/21","01:30",0.0,20.6,77.1,1009.3,310.3,1.5,5.4,345.6,0.00,16.5,23.1,"01:29:36",1
"20/09/21","01:40",0.0,20.8,76.2,1009.7,313.7,1.8,3.6,335.7,0.00,16.5,22.8,"01:37:52",1
"20/09/21","01:50",0.0,20.9,74.9,1009.5,315.9,2.1,4.0,332.6,0.00,16.3,22.9,"01:44:24",1
"20/09/21","02:00",0.0,20.8,73.8,1009.3,323.8,2.0,3.5,340.2,0.00,16.0,22.8,"01:54:48",1
"20/09/21","02:10",0.0,20.8,73.3,1009.3,328.9,1.5,2.7,320.7,0.00,15.9,22.9,"02:03:44",1
"20/09/21","02:20",0.0,20.6,73.3,1009.3,314.6,1.2,2.2,359.1,0.00,15.7,22.8,"02:17:36",1
"20/09/21","02:30",0.0,20.4,73.5,1009.5,330.7,1.5,3.4,336.6,0.00,15.5,22.7,"02:29:12",1
"20/09/21","02:40",0.0,20.3,73.3,1009.5,316.9,1.6,2.9,326.8,0.00,15.4,22.8,"02:30:56",1
"20/09/21","02:50",0.0,20.2,73.3,1009.3,338.8,1.3,3.7,337.4,0.00,15.3,22.6,"02:47:52",1
"20/09/21","03:00",0.0,20.0,73.4,1009.5,315.9,1.3,2.8,338.1,0.00,15.1,22.6,"02:59:28",1
"20/09/21","03:10",0.0,20.3,72.7,1009.5,310.2,1.7,4.3,343.0,0.00,15.3,22.6,"03:00:08",1
"20/09/21","03:20",0.0,20.2,72.2,1009.5,316.1,1.3,2.7,335.7,0.00,15.1,22.7,"03:10:48",1
"20/09/21","03:30",0.0,20.2,71.6,1009.7,317.6,1.5,3.5,334.9,0.00,14.9,22.5,"03:22:08",1
"20/09/21","03:40",0.0,20.1,71.4,1009.5,326.8,1.3,3.2,340.2,0.00,14.8,22.3,"03:37:44",1
"20/09/21","03:50",0.0,20.0,71.2,1009.7,320.7,1.1,2.6,340.5,0.00,14.7,22.5,"03:43:44",1
"20/09/21","04:00",0.0,19.7,72.3,1009.7,338.8,1.1,2.4,0.9,0.00,14.6,22.4,"03:54:16",1
"20/09/21","04:10",0.0,19.4,73.4,1010.0,336.6,1.2,2.7,341.6,0.00,14.6,22.3,"04:06:00",1
"20/09/21","04:20",0.0,19.5,74.0,1010.0,346.1,1.2,2.0,0.7,0.00,14.8,22.2,"04:14:56",1
"20/09/21","04:30",0.0,19.0,75.4,1010.2,321.4,1.1,1.7,308.4,0.00,14.6,22.1,"04:23:44",1
"20/09/21","04:40",0.0,18.6,77.0,1010.4,319.7,0.8,1.3,340.2,0.00,14.5,22.1,"04:32:32",1
"20/09/21","04:50",0.0,18.4,78.2,1010.4,317.8,1.1,2.0,331.3,0.00,14.6,22.0,"04:42:40",1
"20/09/21","05:00",0.0,18.2,79.4,1010.2,316.3,1.0,1.8,320.7,0.00,14.6,22.2,"04:59:28",1
"20/09/21","05:10",0.0,18.1,80.1,1010.4,323.6,0.7,1.4,342.7,0.00,14.7,22.1,"05:02:32",1
"20/09/21","05:20",0.0,17.8,80.6,1010.7,297.8,0.7,1.6,314.6,0.00,14.5,22.0,"05:14:48",1
"20/09/21","05:30",0.0,17.6,81.4,1010.4,322.3,1.1,2.2,344.6,0.00,14.4,22.2,"05:21:20",1
"20/09/21","05:40",0.0,17.4,81.9,1010.7,307.7,1.1,1.6,317.4,0.00,14.3,22.1,"05:30:24",1
"20/09/21","05:50",0.0,17.1,82.3,1010.4,305.9,0.8,1.4,323.7,0.00,14.1,22.0,"05:46:00",1
"20/09/21","06:00",0.0,16.9,83.0,1010.7,312.1,1.1,1.4,318.0,0.00,14.0,22.0,"05:53:12",1
"20/09/21","06:10",0.0,16.6,83.7,1010.7,299.4,0.7,1.4,327.0,0.00,13.9,21.7,"06:04:40",1
"20/09/21","06:20",0.0,16.5,84.4,1010.9,305.5,0.6,1.2,323.4,0.00,13.9,21.8,"06:12:56",1
"20/09/21","06:30",0.0,16.3,84.9,1010.7,284.4,0.6,1.1,298.9,0.00,13.8,21.8,"06:20:08",1
"20/09/21","06:40",0.0,16.5,85.8,1011.2,108.0,0.2,0.5,301.5,0.00,14.2,21.8,"06:30:24",1
"20/09/21","06:50",0.0,17.6,86.3,1010.9,271.5,0.3,1.2,327.8,0.02,15.3,21.7,"06:48:08",1
"20/09/21","07:00",0.0,18.6,86.3,1011.2,308.5,0.3,1.2,348.3,0.04,16.3,21.8,"06:56:08",1
"20/09/21","07:10",0.0,19.1,84.7,1010.9,296.8,0.8,2.1,273.4,0.05,16.5,21.9,"07:09:12",1
"20/09/21","07:20",0.0,20.0,81.7,1011.6,320.0,1.0,2.9,344.0,0.07,16.8,21.7,"07:13:20",1
"20/09/21","07:30",0.0,20.9,77.6,1011.4,314.9,0.8,2.0,349.7,0.10,16.9,21.9,"07:24:24",1
"20/09/21","07:40",0.0,21.7,72.3,1011.4,314.4,0.7,2.6,309.7,0.12,16.5,22.0,"07:36:40",1
"20/09/21","07:50",0.0,22.1,68.6,1011.2,341.0,1.1,2.2,345.9,0.15,16.1,22.1,"07:47:44",1
"20/09/21","08:00",0.0,22.6,65.6,1010.9,315.3,1.3,2.6,344.5,0.18,15.9,22.3,"07:59:44",1
"20/09/21","08:10",0.0,22.8,64.7,1010.9,341.5,1.6,4.1,4.0,0.20,15.8,22.4,"08:06:32",1
"20/09/21","08:20",0.0,22.9,63.4,1010.7,2.5,1.8,4.1,332.4,0.23,15.6,22.5,"08:18:08",1
"20/09/21","08:30",0.0,22.9,62.8,1010.7,333.7,2.0,6.5,324.3,0.26,15.5,22.6,"08:24:32",1
"20/09/21","08:40",0.0,23.4,62.3,1010.4,339.9,1.7,5.4,341.3,0.27,15.8,22.8,"08:30:56",1
"20/09/21","08:50",0.0,23.7,60.0,1010.7,344.4,1.6,4.0,322.2,0.31,15.5,23.0,"08:40:40",1
"20/09/21","09:00",0.0,24.2,58.2,1010.7,351.5,1.3,3.5,352.0,0.34,15.5,23.0,"08:55:44",1
"20/09/21","09:10",0.0,24.2,56.0,1010.2,24.2,1.5,3.7,342.8,0.36,14.9,23.1,"09:01:52",1
"20/09/21","09:20",0.0,24.4,55.1,1010.2,16.3,1.6,4.0,303.2,0.38,14.8,23.4,"09:17:28",1
"20/09/21","09:30",0.0,24.6,53.1,1010.4,14.5,1.7,4.1,327.4,0.40,14.5,23.6,"09:21:04",1
"20/09/21","09:40",0.0,25.1,52.4,1009.7,344.7,1.5,3.2,358.1,0.42,14.7,23.8,"09:32:16",1
"20/09/21","09:50",0.0,25.0,51.2,1010.0,339.9,2.1,3.7,344.0,0.44,14.3,23.9,"09:42:16",1
"20/09/21","10:00",0.0,25.3,49.2,1009.7,350.7,1.8,3.9,338.3,0.46,13.9,24.1,"09:51:44",1
"20/09/21","10:10",0.0,25.9,48.1,1009.0,0.2,1.7,3.6,25.4,0.49,14.1,24.3,"10:03:28",1
"20/09/21","10:20",0.0,26.1,47.0,1008.8,336.2,1.3,5.5,331.3,0.44,14.0,24.4,"10:16:40",1
"20/09/21","10:30",0.0,26.4,46.0,1008.8,29.1,1.6,4.0,345.2,0.52,13.9,24.7,"10:21:52",1
"20/09/21","10:40",0.0,26.3,46.7,1008.8,359.9,1.6,3.6,334.6,0.46,14.0,25.0,"10:31:36",1
"20/09/21","10:50",0.0,26.3,45.8,1008.6,359.9,1.6,4.8,341.8,0.45,13.7,25.1,"10:47:20",1
"20/09/21","11:00",0.0,27.5,44.0,1008.8,233.7,0.7,2.7,341.9,0.57,14.2,25.6,"10:51:20",1
"20/09/21","11:10",0.0,27.8,42.5,1009.3,85.6,1.2,3.9,352.1,0.60,13.9,25.6,"11:03:28",1
"20/09/21","11:20",0.0,27.9,42.0,1009.3,60.4,1.2,3.5,347.3,0.61,13.9,26.0,"11:10:32",1
"20/09/21","11:30",0.0,28.1,42.2,1009.3,231.5,1.5,3.9,308.1,0.62,14.1,26.0,"11:29:36",1
"20/09/21","11:40",0.0,27.1,43.2,1008.8,351.3,1.7,3.4,348.7,0.36,13.6,26.2,"11:31:20",1
"20/09/21","11:50",0.0,26.9,43.2,1008.3,305.3,1.2,4.2,339.1,0.43,13.4,26.4,"11:43:28",1
"20/09/21","12:00",0.0,26.8,43.7,1008.6,341.0,1.5,4.4,347.1,0.40,13.5,26.4,"11:54:48",1
"20/09/21","12:10",0.0,27.1,43.3,1008.3,2.6,1.5,2.8,330.2,0.51,13.6,26.5,"12:02:40",1
"20/09/21","12:20",0.0,28.0,41.8,1008.3,320.0,1.3,2.8,195.4,0.58,13.9,26.8,"12:16:32",1
"20/09/21","12:30",0.0,28.5,41.6,1008.6,348.2,1.1,4.3,19.9,0.58,14.2,26.9,"12:22:00",1
"20/09/21","12:40",0.0,28.1,41.5,1008.1,354.6,1.8,5.0,344.4,0.56,13.8,26.8,"12:34:56",1
"20/09/21","12:50",0.0,28.2,41.0,1008.6,314.3,1.2,3.6,342.6,0.55,13.7,27.2,"12:46:32",1
"20/09/21","13:00",0.0,28.7,40.6,1008.3,324.5,1.0,4.1,342.3,0.55,14.0,27.4,"12:57:36",1
"20/09/21","13:10",0.0,28.8,38.4,1008.6,324.4,1.2,4.2,359.1,0.53,13.3,27.6,"13:04:24",1
"20/09/21","13:20",0.0,28.0,42.2,1008.1,340.0,2.1,4.7,345.0,0.51,14.0,27.6,"13:14:48",1
"20/09/21","13:30",0.0,27.8,41.7,1007.8,354.0,2.0,4.4,32.4,0.45,13.7,27.6,"13:23:52",1
"20/09/21","13:40",0.0,28.0,38.5,1007.8,6.5,2.0,4.4,357.4,0.50,12.6,27.5,"13:36:00",1
"20/09/21","13:50",0.0,28.7,37.2,1008.1,8.1,1.1,4.1,335.5,0.49,12.7,27.7,"13:43:44",1
"20/09/21","14:00",0.0,28.5,40.2,1007.8,343.5,1.5,4.0,337.3,0.47,13.7,27.9,"13:55:44",1
"20/09/21","14:10",0.0,28.5,39.8,1007.4,333.5,1.6,4.0,300.4,0.45,13.6,27.8,"14:00:48",1
"20/09/21","14:20",0.0,28.0,39.0,1007.6,328.7,2.2,4.5,313.7,0.43,12.8,27.7,"14:14:32",1
"20/09/21","14:30",0.0,28.3,38.6,1007.4,334.5,1.8,4.1,350.9,0.41,12.9,27.8,"14:21:04",1
"20/09/21","14:40",0.0,28.5,37.4,1007.1,322.7,1.5,3.4,340.2,0.39,12.6,28.1,"14:32:32",1
"20/09/21","14:50",0.0,28.7,38.0,1007.4,350.2,1.3,2.8,348.1,0.37,13.0,28.0,"14:46:32",1
"20/09/21","15:00",0.0,28.3,39.0,1007.1,330.0,1.8,3.3,338.3,0.35,13.1,28.0,"14:53:04",1
"20/09/21","15:10",0.0,28.2,40.4,1007.6,341.0,1.7,4.1,338.5,0.33,13.5,27.9,"15:02:56",1
"20/09/21","15:20",0.0,28.0,40.6,1007.4,336.7,1.7,3.6,333.1,0.30,13.4,27.8,"15:15:28",1
"20/09/21","15:30",0.0,27.5,41.9,1007.4,345.8,2.6,4.8,319.4,0.28,13.5,27.6,"15:27:20",1
"20/09/21","15:40",0.0,27.3,42.3,1007.1,339.9,2.1,4.1,346.6,0.25,13.4,27.5,"15:30:08",1
"20/09/21","15:50",0.0,27.1,42.5,1006.9,347.3,2.7,6.4,335.3,0.23,13.3,27.5,"15:47:20",1
"20/09/21","16:00",0.0,26.8,43.3,1006.7,341.2,2.7,6.0,341.9,0.20,13.3,27.3,"15:56:08",1
"20/09/21","16:10",0.0,26.6,42.5,1007.1,350.0,2.3,5.1,358.1,0.17,12.9,27.2,"16:05:36",1
"20/09/21","16:20",0.0,26.6,43.2,1007.1,341.7,2.3,4.3,340.6,0.15,13.1,27.0,"16:17:36",1
"20/09/21","16:30",0.0,26.1,43.1,1007.8,346.0,2.6,6.6,38.6,0.12,12.6,26.9,"16:29:52",1
"20/09/21","16:40",0.0,25.8,45.6,1007.8,346.9,2.5,5.5,348.8,0.10,13.2,26.7,"16:39:28",1
"20/09/21","16:50",0.0,25.4,46.0,1008.1,340.0,3.0,5.6,340.1,0.07,13.0,26.6,"16:41:36",1
"20/09/21","17:00",0.0,25.0,46.4,1008.3,342.2,3.0,7.2,345.2,0.04,12.8,26.6,"16:54:16",1
"20/09/21","17:10",0.0,24.5,48.0,1009.0,332.7,2.5,7.2,322.1,0.03,12.8,26.3,"17:07:20",1
"20/09/21","17:20",0.0,24.0,48.5,1009.0,342.7,2.8,6.5,343.4,0.01,12.5,26.1,"17:13:04",1
"20/09/21","17:30",0.0,23.5,50.8,1008.6,337.6,2.6,6.0,313.4,0.00,12.8,25.9,"17:28:24",1
"20/09/21","17:40",0.0,23.1,53.4,1008.6,348.6,2.2,4.5,333.1,0.00,13.2,25.7,"17:31:44",1
"20/09/21","17:50",0.0,22.9,55.7,1009.0,348.0,2.6,4.9,350.8,0.00,13.6,25.7,"17:42:16",1
"20/09/21","18:00",0.0,22.6,58.3,1009.0,351.0,2.3,5.9,337.5,0.00,14.0,25.4,"17:55:52",1
"20/09/21","18:10",0.0,22.2,60.6,1009.0,337.5,2.5,5.9,332.9,0.00,14.3,25.3,"18:09:04",1
"20/09/21","18:20",0.0,22.0,62.3,1009.3,343.2,2.5,4.1,345.5,0.00,14.5,25.3,"18:11:04",1
"20/09/21","18:30",0.0,21.7,63.7,1009.3,335.6,2.2,5.0,327.7,0.00,14.6,25.0,"18:27:44",1
"20/09/21","18:40",0.0,21.7,64.3,1009.5,340.8,2.7,7.4,346.7,0.00,14.7,24.9,"18:33:52",1
"20/09/21","18:50",0.0,21.6,65.1,1009.3,339.2,2.7,5.5,330.9,0.00,14.8,24.9,"18:45:04",1
"20/09/21","19:00",0.0,21.6,65.7,1009.7,335.2,3.4,6.5,352.3,0.00,15.0,24.8,"18:50:02",1
"20/09/21","19:10",0.0,21.5,66.4,1009.5,339.6,3.1,7.2,341.5,0.00,15.0,24.5,"19:06:08",1
"20/09/21","19:20",0.0,21.4,66.9,1009.7,342.8,2.3,6.3,335.0,0.00,15.0,24.3,"19:11:12",1
"20/09/21","19:30",0.0,21.3,67.3,1009.7,321.4,1.1,2.5,312.5,0.00,15.0,24.2,"19:23:52",1
"20/09/21","19:40",0.0,21.0,68.0,1010.2,251.6,0.8,2.4,233.3,0.00,14.9,24.3,"19:36:00",1
"20/09/21","19:50",0.0,21.0,68.4,1010.2,258.6,1.0,2.0,238.8,0.00,15.0,24.0,"19:48:16",1
"20/09/21","20:00",0.0,20.9,68.7,1010.4,297.0,1.1,2.4,349.5,0.00,15.0,24.3,"19:59:28",1
"20/09/21","20:10",0.0,20.7,69.0,1010.7,299.5,0.8,1.8,320.4,0.00,14.9,24.1,"20:08:00",1
"20/09/21","20:20",0.0,20.3,69.8,1010.9,204.1,0.2,0.6,334.9,0.00,14.6,23.9,"20:10:40",1
"20/09/21","20:30",0.0,19.8,71.0,1010.7,259.8,0.6,1.4,309.8,0.00,14.4,23.9,"20:20:02",1
"20/09/21","20:40",0.0,19.8,72.5,1010.9,329.2,1.3,2.1,330.2,0.00,14.8,23.9,"20:30:24",1
"20/09/21","20:50",0.0,19.6,74.4,1010.9,334.7,1.3,2.4,341.9,0.00,15.0,23.7,"20:42:56",1
"20/09/21","21:00",0.0,19.2,75.5,1010.7,307.5,0.7,1.9,336.6,0.00,14.8,23.4,"20:55:12",1
"20/09/21","21:10",0.0,18.7,76.3,1010.7,272.3,0.5,1.2,268.6,0.00,14.5,23.3,"21:08:16",1
"20/09/21","21:20",0.0,18.3,78.0,1010.2,329.4,1.2,2.4,334.4,0.00,14.4,23.4,"21:11:36",1
"20/09/21","21:30",0.0,18.0,79.6,1010.4,317.7,1.3,2.1,323.5,0.00,14.5,23.2,"21:22:24",1
"20/09/21","21:40",0.0,17.8,80.6,1011.2,289.3,0.7,1.3,315.0,0.00,14.5,23.2,"21:33:04",1
"20/09/21","21:50",0.0,17.7,81.4,1010.9,287.3,1.0,1.2,306.7,0.00,14.5,23.1,"21:43:36",1
"20/09/21","22:00",0.0,17.8,82.5,1010.9,306.8,1.6,2.4,332.6,0.00,14.8,23.1,"21:58:24",1
"20/09/21","22:10",0.0,17.8,83.1,1010.9,312.3,1.5,2.1,320.7,0.00,14.9,22.8,"22:00:08",1
"20/09/21","22:20",0.0,17.7,83.5,1011.2,313.0,1.1,1.8,341.4,0.00,14.9,23.0,"22:10:48",1
"20/09/21","22:30",0.0,17.4,84.1,1011.2,313.6,1.2,1.7,327.2,0.00,14.7,22.9,"22:24:08",1
"20/09/21","22:40",0.0,17.3,84.9,1011.4,285.2,1.0,2.8,332.0,0.00,14.8,22.7,"22:39:20",1
"20/09/21","22:50",0.0,17.3,85.2,1011.6,288.6,0.5,1.1,269.2,0.00,14.8,22.6,"22:40:16",1
"20/09/21","23:00",0.0,17.7,85.6,1011.4,333.3,0.7,1.9,317.9,0.00,15.3,22.6,"22:57:52",1
"20/09/21","23:10",0.0,17.6,85.7,1011.2,325.8,1.8,2.8,334.0,0.00,15.2,22.6,"23:06:16",1
"20/09/21","23:20",0.0,17.6,85.7,1011.6,274.9,1.0,2.7,313.6,0.00,15.2,22.4,"23:11:12",1
"20/09/21","23:30",0.0,17.5,85.9,1011.6,291.9,0.7,2.0,318.2,0.00,15.2,22.4,"23:29:04",1
"20/09/21","23:40",0.0,17.6,86.0,1012.1,314.7,1.6,2.1,315.0,0.00,15.3,22.4,"23:36:08",1
"20/09/21","23:50",0.0,17.5,86.0,1012.1,314.8,1.5,2.0,330.2,0.00,15.2,22.4,"23:41:36",1
"20/09/21","24:00",0.0,17.1,86.2,1011.9,324.3,1.2,1.8,327.3,0.00,14.8,22.2,"23:51:20",1
